Weather in Plodovitoye

Russia / Republic of Kalmykia     48°08′22″N   44°24′38″E
temp.,
°C
wind,
m/s
gust,
m/s
humid.,
%
clouds,
%
prec.,
mm/h
press.,
hPa
HPBL,
m
26 october, tue
tue2600:000nw46655 0.0 1032126
03:00−1nw367081 0.0 1033118
06:00−1nw35735 0.0 1033113
09:00+2nnw34595 0.0 1034392
12:00+5nnw23465 0.0 1033983
15:00+7n22374 0.0 10321059
18:00+3ne11465 0.0 103310
21:00+2w22456 0.0 103310
27 october, wed
wed2700:00+1w22465 0.0 103310
03:00+1wsw22475 0.0 103213
06:000sw22505 0.0 103211
09:00+5ssw334044 0.0 1032253
12:00+9ssw44317 0.0 1030786
15:00+10s44306 0.0 1028916
18:00+6s46435 0.0 102789
21:00+4ssw47480 0.0 1026115
28 october, thu
thu2800:00+3sw47490 0.0 1025106
03:00+2sw46520 0.0 102477
06:00+2wsw465685 0.0 102479
09:00+5wsw4646100 0.0 1024226
12:00+10w4533100 0.0 1022720
15:00+10w4632100 0.0 1021644
18:00+8wsw4839100 0.0 1021188
21:00+7wsw5104876 0.0 1020221
29 october, fri
fri2900:00+7wsw6125899 0.0 1018351
03:00+8wsw71378100 0.3 1017495
06:00+8w71289100 1.6 1017487
09:00+9wnw61186100 2.0 1018496
12:00+10nnw71078100 0.6 1019882
15:00+8n91176100 0.6 10231012
18:00+7nne8126786 0.0 10271135
21:00+6nne71159100 0.0 1029904
30 october, sat
sat3000:00+3nne610586 0.0 1031533
03:00+1nne510655 0.0 1033355
06:000n49705 0.0 1034283
09:00+2nne57628 0.0 1036384
12:00+6nne45537 0.0 1036564
15:00+8nne44525 0.0 1036634
18:00+5ne33630 0.0 103831
21:00+3ene22700 0.0 103811